Regional Weather Roundup
Issued by NWS San Diego, CA

Home | Current Version | Previous Version | Text Only | Print | Product List | Glossary On
Versions: 1 2 3 4 5 6 7 8 9 10 11 12 13 14 15 16 17 18 19 20 21 22 23 24 25 26 27 28 29 30 31 32 33 34 35 36 37 38 39 40 41 42 43 44 45 46 47 48 49 50
000
ASUS46 KSGX 191711
RWRSGX

SAN DIEGO HOURLY WEATHER ROUNDUP
NATIONAL WEATHER SERVICE SAN DIEGO CA
1000 AM PDT THU OCT 19 2017

NOTE: "FAIR" INDICATES FEW OR NO CLOUDS BELOW 12,000 FEET WITH NO
SIGNIFICANT WEATHER AND/OR OBSTRUCTIONS TO VISIBILITY.

CAZ042-043-060-061-PZZ750-775-191800-

GREATER SAN DIEGO AREA

CITY           SKY/WX    TMP DP  RH WIND       PRES   REMARKS
SAN DIEGO AP   PTSUNNY   68  60  75 S3        29.95R
NATIONAL CITY    N/A     70  63  79 SW1       29.96S
CHULA VISTA      N/A     71  64  77 E1        29.85S
IMPERIAL BEACH PTSUNNY   70  61  73 S7        29.94R
BROWN FIELD    PTSUNNY   70  59  68 VRB6      29.94R
MIRAMAR MCAS   PTSUNNY   73  61  65 VRB5      29.94R
MONTGOMERY FLD PTSUNNY   72  59  63 SW5       29.94S HAZE
GILLESPIE FLD  SUNNY     68  57  68 CALM      29.93F

$$

NORTH SAN DIEGO COUNTY

CITY           SKY/WX    TMP DP  RH WIND       PRES   REMARKS
CAMP PENDLETON PTSUNNY   69  59  70 CALM      29.92S
OCEANSIDE AP   PTSUNNY   70  61  73 SW6       29.92R
OCEANSIDE HBR    N/A     68  62  80 E5        29.95R
VISTA            N/A     67  61  79 SW1       29.90R
CARLSBAD       PTSUNNY   68  61  78 CALM      29.93R
DEL MAR          N/A     67  62  82 SW3       29.95R
LA JOLLA SCRIP   N/A     68  63  83 SW2       29.93R
FALLBROOK        N/A     66  65  96 SW2       29.95R
ESCONDIDO        N/A     68  61  77 S1        29.93R
SAN MARCOS       N/A     66  60  79 SW3       29.95R
POWAY            N/A     68  59  74 CALM      29.94R

$$

EAST SAN DIEGO COUNTY

CITY           SKY/WX    TMP DP  RH WIND       PRES   REMARKS
RAMONA         PTSUNNY   69  49  48 VRB3      29.95R
SANTEE LAKES     N/A     67  60  79 CALM      29.92R
LA MESA          N/A     66  60  81 CALM      29.86S
JAMUL            N/A     68  58  71 CALM      29.92S
DESCANSO N       N/A     71  26  19 E1        29.86R
CAMPO            N/A     69  36  29 SW5       29.96R

$$

ORANGE COUNTY AND THE LOS ANGELES BASIN

CITY           SKY/WX    TMP DP  RH WIND       PRES   REMARKS
JOHN WAYNE AP  PTSUNNY   70  60  70 CALM      29.92F
LAGUNA BEACH     N/A     70  63  78 S5        29.87F
LAKE FOREST FR   N/A     67  57  70 CALM      29.81F
HUNTINGTON BCH   N/A     72  64  76 CALM      29.93S
LOS ALAMITOS   PTSUNNY   70  60  69 CALM      29.92S
FULLERTON      PTSUNNY   71  61  70 CALM      29.91F
LONG BEACH     CLOUDY    70  61  73 SE3       29.92S
L.A. AP        PTSUNNY   72  61  68 SE6       29.93R
L.A. DOWNTOWN  MOSUNNY   72  59  63 CALM      29.92S

$$

THE INLAND EMPIRE

CITY           SKY/WX    TMP DP  RH WIND       PRES   REMARKS
CORONA         SUNNY     68  58  70 CALM      29.94S
CHINO          SUNNY     69  59  70 SW5       29.95S HAZE
ONTARIO        MOSUNNY   68  58  70 W3        29.93F HAZE
SAN BERNARDINO MOSUNNY   70  54  56 CALM      29.94S HAZE
RIVERSIDE AP   MOSUNNY   66  60  81 W3        29.94S
MORENO VALLEY    N/A     68  60  73 NW1       28.05R
MARCH ARB      SUNNY     65  62  88 CALM      29.94F
HORSETHIEF CYN   N/A     67  51  57 NE3       29.91S
PERRIS           N/A     61  60  97 CALM        N/A
HEMET EAST       N/A     64  47  55 CALM      29.95R
FRENCH VALLEY  FAIR      66  55  68 CALM      29.95S
TEMECULA         N/A     65  59  82 CALM      29.98S

$$

SAN BERNARDINO AND RIVERSIDE COUNTY MOUNTAINS

CITY           SKY/WX    TMP DP  RH WIND       PRES   REMARKS
BIG BEAR AP    SUNNY     63  32  31 W3        30.14S
ANGELUS OAKS     N/A     61  40  44 CALM      29.79S

$$

SOUTHERN DESERT INCLUDING THE COACHELLA VALLEY

CITY           SKY/WX    TMP DP  RH WIND       PRES   REMARKS
PALM SPRINGS   SUNNY     84  47  27 CALM      29.83R
THOUSAND PALMS   N/A     85  48  27 W3        29.77R
PALM DESERT      N/A     84  53  34 CALM        N/A
THERMAL        SUNNY     82  54  37 S5        29.77S
BLYTHE         SUNNY     78  41  26 E3        29.81F
IMPERIAL AP    SUNNY     85  37  18 SE3       29.78F
EL CENTRO NAS  MOSUNNY   85  34  16 SE5       29.80S
YUMA AZ        MOSUNNY   83  42  23 W6        29.81S
MEXICALI       MOSUNNY   82  39  21 E6        29.81S

$$

UPPER DESERT

CITY           SKY/WX    TMP DP  RH WIND       PRES   REMARKS
VICTORVILLE AP SUNNY     72  21  15 CALM      29.97S
HESPERIA         N/A     70  45  40 CALM      29.97S
PALMDALE       SUNNY     74  22  14 W5        29.96R
LANCASTER      SUNNY     74  26  16 W21G31    29.94S
EDWARDS AFB    MOSUNNY   72  23  16 SW10      29.91S
DAGGETT        SUNNY     75  26  16 W18       29.89F
29 PALMS N     SUNNY     79  26  14 NW8       29.95F
NEEDLES        SUNNY     78  22  12 SE3       29.84F

$$

REGIONAL REPORTS

CITY           SKY/WX    TMP DP  RH WIND       PRES   REMARKS
SANTA BARBARA  MOSUNNY   68  61  78 SE5       29.93R
SANDBERG       SUNNY     64  30  27 N18G24    30.06F
LAS VEGAS NV   PTSUNNY   76  27  16 N3        29.89S
PHOENIX AZ     MOSUNNY   82  43  25 E7        29.84S
TIJUANA        PTSUNNY   70  57  64 CALM      29.96S
ENSENADA NW      N/A     69  32  25 CALM      29.91S

$$

OFFSHORE ISLANDS

CITY           SKY/WX    TMP DP  RH WIND       PRES   REMARKS
CATALINA ARPT  CLOUDY    63  60  90 CALM      29.96S
SAN CLEMENTE I PTSUNNY   66  60  81 W14       29.95S
SAN NICOLAS IS CLOUDY    61  57  87 W22G29    29.96R

$$

MARINE AND OFFSHORE BUOY REPORTS

STATION/POSITION SKY/WX   TEMP    WIND        PRES    VSBY  SWELL
                          AIR SEA DIR/SP/G                  HT/PER/DIR
                          (F)     (DEG/KT/KT) (MB)    (MI)  (FT/S/D)
TANNER BANKS               63 64  310/ 16/ 17 1014.2R         5/210/15
S CLEMENTE BASIN           66 70  300/ 14/ 16 1013.5R         5/200/15
SAN NICOLAS IS.               63                N/A           5/190/14
SO. S. ROSA ISLA           59 61  300/ 19/ 23 1014.3          5/290/11
W. S. BARBARA CH           57 58  310/ 23/ 29 1014.0R         3/280/11
M. S. BARBARA CH           64 66  270/  6/  8 1014.0R         5/260/ 6
S. MONICA BASIN               69  340/  4/  6 1013.2R
S PEDRO CHANNEL               69                N/A           2/180/17
CMP PENDLETON NS              69                N/A           3/210/15
OCEANSIDE OFFSHR              70                N/A           3/200/15
TORREY PINES OTR              69                N/A           2/200/14
SAN DIEGO BAY                 74              1014.1R
POINT LOMA SOUTH              70                N/A           3/190/15

$$





USA.gov is the U.S. government's official web portal to all federal, state and local government web resources and services.